Regional Weather Roundup
Issued by NWS Newport/Morehead, NC

Current Version | Previous Version | Text Only | Print | Product List | Glossary On
Versions: 1 2 3 4 5 6 7 8 9 10 11 12 13 14 15 16 17 18 19 20 21 22 23 24 25 26 27 28 29 30 31 32 33 34 35 36 37 38 39 40 41 42 43 44 45 46 47 48 49 50
839
ASUS42 KMHX 111425
RWRMHX
WEATHER ROUNDUP FOR EASTERN NORTH CAROLINA
NATIONAL WEATHER SERVICE NEWPORT/MOREHEAD CITY NC
900 AM EST THU FEB 11 2016

NOTE: "FAIR" INDICATES FEW OR NO CLOUDS BELOW 12,000 FEET
WITH NO SIGNIFICANT WEATHER AND/OR OBSTRUCTIONS TO VISIBILITY

NCZ015>017-031-032-045>047-102-103-111500-
NORTH COAST

CITY           SKY/WX    TMP DP  RH WIND       PRES   REMARKS
EDENTON        SUNNY     30   7  39 NW17G23   30.20R WCI  18
ELIZABETH CITY SUNNY     27   8  44 W20G28    30.18R WCI  13
KITTY HAWK     SUNNY     30  11  46 W13G21    30.14S WCI  20
MANTEO         SUNNY     29  11  46 W12G21    30.17S WCI  20

$$

NCZ045>047-081-094-103-104-111500-
CENTRAL COAST

CITY           SKY/WX    TMP DP  RH WIND       PRES   REMARKS
FRISCO         SUNNY     31  12  45 NW16G28   30.16R WCI  20
SWANQUARTER      N/A     30 N/A N/A NW12G22   30.15S

$$

NCZ095-097-098-100-101-111500-
SOUTHERN COAST

CITY           SKY/WX    TMP DP  RH WIND       PRES   REMARKS
BEAUFORT       SUNNY     32  11  41 NW16      30.19R
CEDAR ISLAND     N/A     32 N/A N/A NW16G31   30.21S
JACKSONVILLE   SUNNY     30   7  37 NW13      30.22R WCI  20
PINEY ISLAND   SUNNY    N/A N/A N/A NW22G28   30.18R
WILMINGTON     SUNNY     32   9  38 NW8       30.24R


$$

NCZ011>013-027>030-043-044-078>080-089-090>093-098-111500-
COASTAL PLAIN

CITY           SKY/WX    TMP DP  RH WIND       PRES   REMARKS
AHOSKIE        SUNNY     27   6  41 W5        30.20S
CLINTON        SUNNY     29  10  43 N7        30.24R
ELIZABETHTOWN  SUNNY     29  11  45 CALM      30.24R
GOLDSBORO      SUNNY     28   5  37 NW14      30.20R WCI  17
GREENVILLE     SUNNY     30   7  37 N9        30.22R
HAVELOCK       SUNNY     31   8  38 NW16      30.20R WCI  20
KENANSVILLE    SUNNY     29   8  41 NW6       30.24R
KINSTON        SUNNY     28   9  43 NW9       30.22R
NEW BERN       MOSUNNY   30   8  39 NW15G21   30.21R WCI  19
RICHLANDS      SUNNY     30   7  37 W5        30.23R
ROCKY MOUNT    SUNNY     27   7  42 W8        30.21R
WASHINGTON     SUNNY     29   6  38 NW8       30.20R
WHITEVILLE     SUNNY     31  14  48 N5        30.24R

$$

AMZ130-135-150-152-154-156-158-170-250-252-270-ANZ085-086-088-633-658-670-111500-
MARINE OBSERVATIONS

STATION/POSITION TIME  TEMP    WIND        PRES    WAVE   SWELL
                       AIR SEA DIR/SP/G            HT/PER HT/PER
                 (UTC) (F)     (DEG/KT/KT) (MB)    (FT/S) (FT/S)
CHESAPEAKE LIGHT 1300   28     290/ 23/ 25 1020.7
64 E VA BEACH    NOT AVBL
DUCK             1400   27     300/ 19/ 26 1020.5
2 E DUCK         1311      44                N/A     3/13   2/13
OREGON INLET     1400   29 41  290/ 12/ 18 1021.1
13E OREGON INLT  1400      46                N/A     6/ 6   2/13
HATTERAS CG      1400   30 45  310/ 22/ 27 1020.7
DIAMOND BUOY     NOT AVBL
CAPE LOOKOUT     NOT AVBL
BEAUFORT LAB     1400   31 44  320/  7/ 13 1021.3
30 SE NEW RVR IN 1408   35 59              1023.0
30 SE NEW RVR IN 1325      59                N/A     7/ 8   2/11
27 SE WRIGHTSVLE 1308   37 61  360/ 14/ 23 1020.9
5 SE WRIGHTSVLE  1308   33 51  340/ 14/ 17 1023.1
225 S CAPE HAT   NOT AVBL
41 SE CHARLESTON NOT AVBL

$$




USA.gov is the U.S. government's official web portal to all federal, state and local government web resources and services.